Overview Statistics Trail Chart Weather Telemetry Raw packets
 

This is the latest recevied weather packets stored in our database for station/object KG7FOQ-13. If no packets are shown the sender has not sent any weather packets the latest 10 day(s).

<< 96 97 98 99 100 101 102 >>
Time Temp. Humidity Pressure Rain* Wind** Luminosity Snow
1787886942 24.44° C 35% 1015.1 hPa 0 mm - - -
1787886641 25° C 32% 1015 hPa 0 mm - - -
1787886341 24.44° C 33% 1015 hPa 0 mm - - -
1787886041 25° C 37% 1015.1 hPa 0 mm - - -
1787885741 26.11° C 35% 1015.1 hPa 0 mm - - -
1787885440 26.11° C 31% 1015 hPa 0 mm - - -
1787885405 26.11° C 30% 1015 hPa 0 mm - - -
1787885139 26.11° C 30% 1015 hPa 0 mm - - -
1787884838 25° C 35% 1015 hPa 0 mm - - -
1787884538 25° C 40% 1015 hPa 0 mm - - -
1787884238 25° C 40% 1014.9 hPa 0 mm - - -
1787883938 25.56° C 39% 1014.9 hPa 0 mm - - -
1787883637 25.56° C 38% 1014.9 hPa 0 mm - - -
1787883336 25.56° C 37% 1014.9 hPa 0 mm - - -
1787883036 26.67° C 36% 1014.9 hPa 0 mm - - -
1787882736 26.67° C 34% 1015 hPa 0 mm - - -
1787882435 26.67° C 33% 1014.9 hPa 0 mm - - -
1787882135 26.67° C 35% 1015 hPa 0 mm - - -
1787881834 26.67° C 32% 1015 hPa 0 mm - - -
1787881533 27.22° C 34% 1015 hPa 0 mm - - -
1787881271 27.22° C 32% 1015 hPa 0 mm - - -
1787881232 27.22° C 32% 1015 hPa 0 mm - - -
1787880631 27.78° C 31% 1015 hPa 0 mm - - -
1787880579 28.33° C 30% 1015 hPa 0 mm - - -
1787880329 28.33° C 30% 1015 hPa 0 mm - - -

* Rain latest hour (hover to see other rain measurements)
** Current wind speed in m/s (hover to see current wind gust speed)